| time (UTC) | temp C | wind direction | speed KPH | gust KPH | rain 1hr cm | rain 24hr cm | rain mn cm | humidity % | barometer mb |
| 20260831030613 | 16 | 102 | 1.6 | 4.8 | 0.00 | 0.00 | 0.00 | 85 | 966.4 |
| 20260831030128 | 16 | 239 | 1.6 | 4.8 | 0.00 | 0.00 | 0.00 | 85 | 966.3 |
| 20260831025658 | 16 | 239 | 0.0 | 4.8 | 0.00 | 0.00 | 0.00 | 85 | 966.8 |
| 20260831025228 | 16 | 239 | 4.8 | 8.0 | 0.00 | 0.00 | 0.00 | 85 | 966.8 |
| 20260831024759 | 16 | 239 | 4.8 | 4.8 | 0.00 | 0.00 | 0.00 | 85 | 966.7 |
| 20260831024338 | 16 | 239 | 1.6 | 1.6 | 0.00 | 0.00 | 0.00 | 85 | 966.8 |
| 20260831023923 | 16 | 239 | 1.6 | 1.6 | 0.00 | 0.00 | 0.00 | 85 | 966.8 |
| 20260831023438 | 16 | 239 | 0.0 | 4.8 | 0.00 | 0.00 | 0.00 | 85 | 966.6 |
| 20260831022958 | 16 | 239 | 0.0 | 1.6 | 0.00 | 0.00 | 0.00 | 85 | 966.8 |
| 20260831022518 | 16 | 239 | 0.0 | 4.8 | 0.00 | 0.00 | 0.00 | 85 | 966.8 |
| 20260831022023 | 16 | 239 | 0.0 | 0.0 | 0.00 | 0.00 | 0.00 | 85 | 966.9 |
| 20260831021553 | 15 | 239 | 0.0 | 1.6 | 0.00 | 0.00 | 0.00 | 85 | 967.1 |
| 20260831021138 | 15 | 239 | 0.0 | 1.6 | 0.00 | 0.00 | 0.00 | 85 | 966.9 |
| 20260831020719 | 15 | 239 | 0.0 | 0.0 | 0.00 | 0.00 | 0.00 | 85 | 967.4 |
| 20260831020239 | 15 | 239 | 0.0 | 0.0 | 0.00 | 0.00 | 0.00 | 85 | 967.0 |
| 20260831015758 | 15 | 239 | 0.0 | 1.6 | 0.00 | 0.00 | 0.00 | 85 | 967.1 |
| 20260831015305 | 15 | 239 | 0.0 | 1.6 | 0.00 | 0.00 | 0.00 | 85 | 967.1 |
| 20260831014833 | 15 | 239 | 0.0 | 1.6 | 0.00 | 0.00 | 0.00 | 85 | 967.1 |
| 20260831014358 | 15 | 239 | 0.0 | 1.6 | 0.00 | 0.00 | 0.00 | 85 | 967.2 |
| 20260831013933 | 15 | 239 | 0.0 | 1.6 | 0.00 | 0.00 | 0.00 | 85 | 967.3 |
| 20260831013508 | 15 | 239 | 0.0 | 1.6 | 0.00 | 0.00 | 0.00 | 85 | 967.4 |
| 20260831013023 | 15 | 239 | 1.6 | 1.6 | 0.00 | 0.00 | 0.00 | 85 | 967.4 |
| 20260831012619 | 15 | 239 | 0.0 | 4.8 | 0.00 | 0.00 | 0.00 | 85 | 967.2 |
| 20260831012203 | 15 | 239 | 0.0 | 1.6 | 0.00 | 0.00 | 0.00 | 85 | 967.5 |
| 20260831011739 | 15 | 239 | 1.6 | 0.0 | 0.00 | 0.00 | 0.00 | 85 | 967.6 |
| 20260831011318 | 15 | 239 | 3.2 | 0.0 | 0.00 | 0.00 | 0.00 | 88 | 967.4 |
| 20260831010858 | 14 | 239 | 0.0 | 0.0 | 0.00 | 0.00 | 0.00 | 88 | 967.7 |
| 20260831010419 | 14 | 239 | 0.0 | 1.6 | 0.00 | 0.00 | 0.00 | 88 | 967.5 |
| 20260831005933 | 14 | 239 | 0.0 | 1.6 | 0.00 | 0.00 | 0.00 | 88 | 967.6 |
| 20260831005458 | 14 | 239 | 0.0 | 0.0 | 0.00 | 0.00 | 0.00 | 88 | 967.7 |
| 20260831005019 | 14 | 239 | 0.0 | 4.8 | 0.00 | 0.00 | 0.00 | 88 | 967.9 |
| 20260831004538 | 14 | 239 | 0.0 | 4.8 | 0.00 | 0.00 | 0.00 | 88 | 967.9 |
| 20260831004113 | 14 | 239 | 0.0 | 1.6 | 0.00 | 0.00 | 0.00 | 88 | 968.1 |
| 20260831003643 | 14 | 239 | 1.6 | 4.8 | 0.00 | 0.00 | 0.00 | 88 | 968.0 |
| 20260831003213 | 14 | 239 | 0.0 | 0.0 | 0.00 | 0.00 | 0.00 | 89 | 968.1 |
| 20260831002728 | 14 | 239 | 0.0 | 0.0 | 0.00 | 0.00 | 0.00 | 88 | 968.1 |
| 20260831002253 | 14 | 282 | 0.0 | 1.6 | 0.00 | 0.00 | 0.00 | 88 | 968.2 |
| 20260831001843 | 14 | 282 | 0.0 | 1.6 | 0.00 | 0.00 | 0.00 | 88 | 968.2 |
| 20260831001419 | 14 | 282 | 0.0 | 1.6 | 0.00 | 0.00 | 0.00 | 86 | 968.4 |
| 20260831000958 | 14 | 282 | 0.0 | 1.6 | 0.00 | 0.00 | 0.00 | 86 | 968.5 |
| 20260831000533 | 14 | 282 | 0.0 | 1.6 | 0.00 | 0.00 | 0.00 | 86 | 968.3 |
| 20260831000119 | 13 | 282 | 0.0 | 1.6 | 0.00 | 0.00 | 0.00 | 86 | 968.2 |
| 20260830235643 | 13 | 282 | 0.0 | 1.6 | 0.00 | 0.00 | 0.00 | 86 | 968.4 |
| 20260830235203 | 15 | 282 | 0.0 | 1.6 | 0.00 | 0.00 | 0.00 | 86 | 968.4 |
| 20260830234748 | 15 | 282 | 0.0 | 1.6 | 0.00 | 0.00 | 0.00 | 86 | 968.6 |
| 20260830234318 | 15 | 282 | 0.0 | 1.6 | 0.00 | 0.00 | 0.00 | 86 | 968.5 |
| 20260830233858 | 15 | 282 | 0.0 | 1.6 | 0.00 | 0.00 | 0.00 | 86 | 968.5 |
| 20260830233448 | 15 | 282 | 1.6 | 1.6 | 0.00 | 0.00 | 0.00 | 86 | 968.5 |
| 20260830233023 | 14 | 282 | 1.6 | 1.6 | 0.00 | 0.00 | 0.00 | 86 | 968.6 |
| 20260830232608 | 14 | 282 | 1.6 | 1.6 | 0.00 | 0.00 | 0.00 | 86 | 968.4 |
| 20260830232123 | 14 | 282 | 0.0 | 1.6 | 0.00 | 0.00 | 0.00 | 86 | 968.7 |
| 20260830231708 | 14 | 282 | 0.0 | 1.6 | 0.00 | 0.00 | 0.00 | 86 | 968.7 |
| 20260830231223 | 15 | 282 | 0.0 | 1.6 | 0.00 | 0.00 | 0.00 | 86 | 968.6 |
| 20260830230808 | 15 | 282 | 0.0 | 1.6 | 0.00 | 0.00 | 0.00 | 86 | 968.6 |
| 20260830230333 | 15 | 282 | 0.0 | 1.6 | 0.00 | 0.00 | 0.00 | 85 | 968.8 |
| 20260830225843 | 15 | 282 | 0.0 | 1.6 | 0.00 | 0.00 | 0.00 | 81 | 968.8 |
| 20260830225403 | 15 | 282 | 0.0 | 1.6 | 0.00 | 0.00 | 0.00 | 81 | 968.7 |
| 20260830224939 | 15 | 282 | 0.0 | 1.6 | 0.00 | 0.00 | 0.00 | 81 | 968.9 |
| 20260830224459 | 15 | 282 | 0.0 | 1.6 | 0.00 | 0.00 | 0.00 | 81 | 968.7 |
| 20260830224026 | 15 | 282 | 0.0 | 1.6 | 0.00 | 0.00 | 0.00 | 81 | 968.8 |
| 20260830223548 | 15 | 282 | 0.0 | 1.6 | 0.00 | 0.00 | 0.00 | 81 | 968.7 |
| 20260830223108 | 15 | 282 | 1.6 | 1.6 | 0.00 | 0.00 | 0.00 | 81 | 968.8 |
| 20260830222638 | 15 | 282 | 0.0 | 1.6 | 0.00 | 0.00 | 0.00 | 81 | 969.0 |
| 20260830222213 | 15 | 282 | 0.0 | 1.6 | 0.00 | 0.00 | 0.00 | 81 | 969.0 |
| 20260830221753 | 15 | 282 | 0.0 | 0.0 | 0.00 | 0.00 | 0.00 | 81 | 968.9 |
| 20260830221308 | 15 | 282 | 0.0 | 0.0 | 0.00 | 0.00 | 0.00 | 81 | 968.8 |
| 20260830220848 | 15 | 282 | 0.0 | 0.0 | 0.00 | 0.00 | 0.00 | 81 | 968.9 |
| 20260830220353 | 15 | 282 | 1.6 | 1.6 | 0.00 | 0.00 | 0.00 | 81 | 968.8 |
| 20260830215918 | 15 | 282 | 1.6 | 1.6 | 0.00 | 0.00 | 0.00 | 81 | 969.0 |
| 20260830215423 | 16 | 282 | 1.6 | 1.6 | 0.00 | 0.00 | 0.00 | 81 | 968.9 |
| 20260830215018 | 16 | 282 | 1.6 | 1.6 | 0.00 | 0.00 | 0.00 | 74 | 969.0 |
| 20260830214539 | 16 | 282 | 0.0 | 1.6 | 0.00 | 0.00 | 0.00 | 74 | 968.8 |
| 20260830214138 | 16 | 282 | 0.0 | 1.6 | 0.00 | 0.00 | 0.00 | 74 | 968.8 |
| 20260830213713 | 16 | 282 | 0.0 | 1.6 | 0.00 | 0.00 | 0.00 | 74 | 968.7 |
| 20260830213233 | 17 | 282 | 0.0 | 1.6 | 0.00 | 0.00 | 0.00 | 74 | 968.9 |
| 20260830212818 | 17 | 282 | 0.0 | 1.6 | 0.00 | 0.00 | 0.00 | 74 | 968.7 |
| 20260830212328 | 17 | 282 | 1.6 | 1.6 | 0.00 | 0.00 | 0.00 | 74 | 968.8 |
| 20260830211859 | 17 | 282 | 1.6 | 1.6 | 0.00 | 0.00 | 0.00 | 74 | 968.8 |
| 20260830211433 | 17 | 282 | 0.0 | 1.6 | 0.00 | 0.00 | 0.00 | 74 | 968.8 |
| 20260830211008 | 17 | 282 | 1.6 | 1.6 | 0.00 | 0.00 | 0.00 | 74 | 969.1 |
| 20260830210543 | 17 | 282 | 3.2 | 1.6 | 0.00 | 0.00 | 0.00 | 74 | 968.7 |
| 20260830210113 | 17 | 282 | 1.6 | 1.6 | 0.00 | 0.00 | 0.00 | 74 | 968.9 |
| 20260830205658 | 17 | 282 | 1.6 | 1.6 | 0.00 | 0.00 | 0.00 | 74 | 968.9 |
| 20260830205228 | 18 | 282 | 0.0 | 1.6 | 0.00 | 0.00 | 0.00 | 74 | 969.0 |
| 20260830204739 | 18 | 282 | 0.0 | 1.6 | 0.00 | 0.00 | 0.00 | 74 | 968.8 |
| 20260830204318 | 18 | 261 | 1.6 | 1.6 | 0.00 | 0.00 | 0.00 | 74 | 969.0 |
| 20260830203838 | 18 | 261 | 1.6 | 1.6 | 0.00 | 0.00 | 0.00 | 74 | 968.6 |
| 20260830203348 | 18 | 261 | 3.2 | 1.6 | 0.00 | 0.00 | 0.00 | 74 | 968.8 |
| 20260830202919 | 18 | 261 | 3.2 | 1.6 | 0.00 | 0.00 | 0.00 | 63 | 968.6 |
| 20260830202518 | 18 | 261 | 1.6 | 1.6 | 0.00 | 0.00 | 0.00 | 63 | 968.9 |
| 20260830202038 | 18 | 261 | 1.6 | 1.6 | 0.00 | 0.00 | 0.00 | 63 | 968.9 |
| 20260830201558 | 18 | 261 | 3.2 | 1.6 | 0.00 | 0.00 | 0.00 | 63 | 968.7 |
| 20260830201133 | 18 | 261 | 3.2 | 4.8 | 0.00 | 0.00 | 0.00 | 63 | 969.0 |
| 20260830200713 | 18 | 261 | 0.0 | 4.8 | 0.00 | 0.00 | 0.00 | 63 | 969.0 |
| 20260830200243 | 18 | 261 | 0.0 | 4.8 | 0.00 | 0.00 | 0.00 | 63 | 969.1 |
| 20260830195823 | 18 | 261 | 0.0 | 4.8 | 0.00 | 0.00 | 0.00 | 63 | 969.0 |
| 20260830195353 | 18 | 261 | 1.6 | 4.8 | 0.00 | 0.00 | 0.00 | 63 | 969.0 |
| 20260830194918 | 18 | 261 | 1.6 | 4.8 | 0.00 | 0.00 | 0.00 | 63 | 968.9 |
| 20260830194438 | 18 | 261 | 1.6 | 4.8 | 0.00 | 0.00 | 0.00 | 63 | 969.0 |
| 20260830194018 | 18 | 261 | 1.6 | 1.6 | 0.00 | 0.00 | 0.00 | 63 | 968.8 |
| 20260830193553 | 18 | 261 | 1.6 | 1.6 | 0.00 | 0.00 | 0.00 | 63 | 969.0 |
| 20260830193058 | 18 | 259 | 1.6 | 1.6 | 0.00 | 0.00 | 0.00 | 63 | 969.0 |
| 20260830192629 | 19 | 259 | 3.2 | 4.8 | 0.00 | 0.00 | 0.00 | 63 | 968.9 |
| 20260830192139 | 19 | 165 | 1.6 | 4.8 | 0.00 | 0.00 | 0.00 | 63 | 968.9 |
| 20260830191653 | 19 | 165 | 3.2 | 1.6 | 0.00 | 0.00 | 0.00 | 63 | 969.1 |
| 20260830191213 | 20 | 165 | 1.6 | 4.8 | 0.00 | 0.00 | 0.00 | 63 | 969.0 |
| 20260830190743 | 20 | 165 | 1.6 | 4.8 | 0.00 | 0.00 | 0.00 | 63 | 968.8 |
| 20260830190246 | 20 | 180 | 0.0 | 4.8 | 0.00 | 0.00 | 0.00 | 63 | 968.9 |
| 20260830185758 | 20 | 180 | 1.6 | 4.8 | 0.00 | 0.00 | 0.00 | 63 | 968.9 |
| 20260830185300 | 20 | 180 | 0.0 | 1.6 | 0.00 | 0.00 | 0.00 | 59 | 969.0 |
| 20260830184839 | 20 | 180 | 0.0 | 1.6 | 0.00 | 0.00 | 0.00 | 59 | 968.7 |
| 20260830184403 | 21 | 180 | 0.0 | 1.6 | 0.00 | 0.00 | 0.00 | 59 | 968.8 |
| 20260830183944 | 21 | 180 | 1.6 | 1.6 | 0.00 | 0.00 | 0.00 | 59 | 968.8 |
| 20260830183508 | 21 | 180 | 0.0 | 1.6 | 0.00 | 0.00 | 0.00 | 59 | 968.7 |
| 20260830183033 | 21 | 180 | 0.0 | 1.6 | 0.00 | 0.00 | 0.00 | 51 | 968.5 |
| 20260830182628 | 21 | 180 | 0.0 | 1.6 | 0.00 | 0.00 | 0.00 | 51 | 968.7 |
| 20260830182158 | 21 | 180 | 0.0 | 1.6 | 0.00 | 0.00 | 0.00 | 51 | 968.5 |
| 20260830181748 | 22 | 180 | 0.0 | 1.6 | 0.00 | 0.00 | 0.00 | 51 | 968.7 |
| 20260830181253 | 22 | 180 | 0.0 | 0.0 | 0.00 | 0.00 | 0.00 | 51 | 968.3 |
| 20260830180818 | 22 | 180 | 1.6 | 0.0 | 0.00 | 0.00 | 0.00 | 51 | 968.3 |
| 20260830180348 | 22 | 180 | 3.2 | 0.0 | 0.00 | 0.00 | 0.00 | 51 | 968.3 |
| 20260830175910 | 22 | 180 | 3.2 | 1.6 | 0.00 | 0.00 | 0.00 | 51 | 968.4 |
| 20260830175443 | 22 | 178 | 1.6 | 1.6 | 0.00 | 0.00 | 0.00 | 51 | 968.2 |
| 20260830175008 | 23 | 178 | 0.0 | 1.6 | 0.00 | 0.00 | 0.00 | 51 | 968.3 |
| 20260830174519 | 23 | 322 | 0.0 | 11.3 | 0.00 | 0.00 | 0.00 | 51 | 968.2 |
| 20260830174028 | 23 | 322 | 3.2 | 11.3 | 0.00 | 0.00 | 0.00 | 51 | 968.2 |
| 20260830173538 | 23 | 322 | 6.4 | 11.3 | 0.00 | 0.00 | 0.00 | 51 | 968.3 |
| 20260830173113 | 23 | 322 | 4.8 | 1.6 | 0.00 | 0.00 | 0.00 | 51 | 968.2 |
| 20260830172652 | 23 | 322 | 6.4 | 1.6 | 0.00 | 0.00 | 0.00 | 51 | 968.1 |
| 20260830172218 | 23 | 322 | 1.6 | 11.3 | 0.00 | 0.00 | 0.00 | 51 | 968.2 |
| 20260830171733 | 23 | 322 | 3.2 | 4.8 | 0.00 | 0.00 | 0.00 | 47 | 968.2 |
| 20260830171258 | 23 | 322 | 1.6 | 8.0 | 0.00 | 0.00 | 0.00 | 47 | 968.2 |
| 20260830170818 | 23 | 127 | 1.6 | 1.6 | 0.00 | 0.00 | 0.00 | 47 | 968.2 |
| 20260830170358 | 23 | 127 | 1.6 | 11.3 | 0.00 | 0.00 | 0.00 | 47 | 968.0 |
| 20260830165913 | 23 | 311 | 0.0 | 11.3 | 0.00 | 0.00 | 0.00 | 47 | 968.2 |
| 20260830165439 | 23 | 286 | 4.8 | 4.8 | 0.00 | 0.00 | 0.00 | 46 | 968.2 |
| 20260830165013 | 23 | 181 | 1.6 | 8.0 | 0.00 | 0.00 | 0.00 | 45 | 968.0 |
| 20260830164528 | 23 | 181 | 6.4 | 8.0 | 0.00 | 0.00 | 0.00 | 45 | 967.9 |
| 20260830164048 | 23 | 231 | 6.4 | 20.9 | 0.00 | 0.00 | 0.00 | 45 | 968.1 |
| 20260830163628 | 23 | 266 | 1.6 | 4.8 | 0.00 | 0.00 | 0.00 | 44 | 968.0 |
| 20260830163200 | 23 | 329 | 6.4 | 8.0 | 0.00 | 0.00 | 0.00 | 44 | 968.1 |
| 20260830162728 | 23 | 329 | 6.4 | 8.0 | 0.00 | 0.00 | 0.00 | 45 | 968.1 |
| 20260830162308 | 23 | 329 | 1.6 | 8.0 | 0.00 | 0.00 | 0.00 | 45 | 968.2 |
| 20260830161848 | 23 | 329 | 3.2 | 8.0 | 0.00 | 0.00 | 0.00 | 41 | 968.1 |
| 20260830161418 | 23 | 329 | 1.6 | 8.0 | 0.00 | 0.00 | 0.00 | 41 | 968.1 |
| 20260830160933 | 23 | 329 | 3.2 | 4.8 | 0.00 | 0.00 | 0.00 | 41 | 968.1 |
| 20260830160503 | 25 | 329 | 4.8 | 4.8 | 0.00 | 0.00 | 0.00 | 41 | 968.1 |
| 20260830160028 | 25 | 329 | 4.8 | 20.9 | 0.00 | 0.00 | 0.00 | 41 | 967.9 |
| 20260830155549 | 25 | 329 | 12.9 | 20.9 | 0.00 | 0.00 | 0.00 | 41 | 968.2 |
| 20260830155059 | 25 | 329 | 3.2 | 20.9 | 0.00 | 0.00 | 0.00 | 41 | 968.2 |
| 20260830154638 | 25 | 298 | 8.0 | 22.5 | 0.00 | 0.00 | 0.00 | 41 | 968.5 |
| 20260830154203 | 25 | 114 | 14.5 | 32.2 | 0.00 | 0.00 | 0.00 | 41 | 967.9 |
| 20260830153728 | 24 | 101 | 14.5 | 17.7 | 0.00 | 0.00 | 0.00 | 41 | 968.2 |
| 20260830153313 | 24 | 168 | 6.4 | 17.7 | 0.00 | 0.00 | 0.00 | 41 | 968.2 |
| 20260830152839 | 24 | 238 | 8.0 | 20.9 | 0.00 | 0.00 | 0.00 | 41 | 968.3 |
| 20260830152403 | 24 | 277 | 9.7 | 22.5 | 0.00 | 0.00 | 0.00 | 41 | 968.3 |
| 20260830151938 | 24 | 277 | 11.3 | 25.7 | 0.00 | 0.00 | 0.00 | 41 | 968.3 |
| 20260830151513 | 24 | 227 | 11.3 | 22.5 | 0.00 | 0.00 | 0.00 | 41 | 968.3 |
| 20260830151028 | 23 | 331 | 6.4 | 20.9 | 0.00 | 0.00 | 0.00 | 41 | 968.4 |
| 20260830150553 | 23 | 331 | 30.6 | 22.5 | 0.00 | 0.00 | 0.00 | 41 | 968.3 |
| 20260830150128 | 24 | 357 | 6.4 | 22.5 | 0.00 | 0.00 | 0.00 | 41 | 968.0 |
| 20260830145648 | 24 | 357 | 6.4 | 22.5 | 0.00 | 0.00 | 0.00 | 41 | 968.3 |
| 20260830145208 | 24 | 357 | 6.4 | 32.2 | 0.00 | 0.00 | 0.00 | 41 | 968.4 |
| 20260830144758 | 24 | 42 | 12.9 | 25.7 | 0.00 | 0.00 | 0.00 | 41 | 968.2 |
| 20260830144333 | 24 | 42 | 6.4 | 14.5 | 0.00 | 0.00 | 0.00 | 39 | 968.2 |
| 20260830143848 | 25 | 246 | 8.0 | 29.0 | 0.00 | 0.00 | 0.00 | 39 | 968.4 |
| 20260830143413 | 25 | 203 | 20.9 | 17.7 | 0.00 | 0.00 | 0.00 | 41 | 968.3 |
| 20260830143003 | 25 | 203 | 1.6 | 17.7 | 0.00 | 0.00 | 0.00 | 41 | 968.5 |
| 20260830142558 | 25 | 71 | 20.9 | 22.5 | 0.00 | 0.00 | 0.00 | 41 | 968.4 |
| 20260830142123 | 25 | 99 | 11.3 | 35.4 | 0.00 | 0.00 | 0.00 | 41 | 968.4 |
| 20260830141643 | 25 | 101 | 11.3 | 25.7 | 0.00 | 0.00 | 0.00 | 41 | 968.3 |
| 20260830141213 | 25 | 101 | 6.4 | 29.0 | 0.00 | 0.00 | 0.00 | 41 | 968.8 |
| 20260830140743 | 25 | 101 | 14.5 | 29.0 | 0.00 | 0.00 | 0.00 | 41 | 968.3 |
| 20260830140328 | 25 | 101 | 17.7 | 32.2 | 0.00 | 0.00 | 0.00 | 41 | 968.5 |
| 20260830135838 | 25 | 330 | 12.9 | 32.2 | 0.00 | 0.00 | 0.00 | 44 | 968.4 |
| 20260830135418 | 24 | 287 | 9.7 | 32.2 | 0.00 | 0.00 | 0.00 | 44 | 968.3 |
| 20260830134928 | 25 | 287 | 17.7 | 25.7 | 0.00 | 0.00 | 0.00 | 44 | 968.3 |
| 20260830134439 | 25 | 1 | 4.8 | 22.5 | 0.00 | 0.00 | 0.00 | 44 | 968.3 |
| 20260830134013 | 25 | 333 | 4.8 | 37.0 | 0.00 | 0.00 | 0.00 | 44 | 968.6 |
| 20260830133538 | 25 | 154 | 4.8 | 25.7 | 0.00 | 0.00 | 0.00 | 44 | 968.5 |
| 20260830133049 | 25 | 190 | 16.1 | 25.7 | 0.00 | 0.00 | 0.00 | 44 | 968.5 |
| 20260830132619 | 25 | 117 | 11.3 | 20.9 | 0.00 | 0.00 | 0.00 | 44 | 968.6 |
| 20260830132148 | 25 | 117 | 11.3 | 17.7 | 0.00 | 0.00 | 0.00 | 44 | 968.5 |
| 20260830131713 | 24 | 233 | 14.5 | 20.9 | 0.00 | 0.00 | 0.00 | 44 | 968.6 |
| 20260830131223 | 24 | 233 | 14.5 | 22.5 | 0.00 | 0.00 | 0.00 | 44 | 968.6 |
| 20260830130745 | 23 | 336 | 9.7 | 29.0 | 0.00 | 0.00 | 0.00 | 44 | 968.5 |
| 20260830130318 | 23 | 109 | 16.1 | 40.2 | 0.00 | 0.00 | 0.00 | 44 | 968.5 |
| 20260830125838 | 23 | 228 | 16.1 | 17.7 | 0.00 | 0.00 | 0.00 | 44 | 968.8 |
| 20260830125359 | 23 | 303 | 11.3 | 32.2 | 0.00 | 0.00 | 0.00 | 44 | 968.8 |
| 20260830124953 | 24 | 288 | 11.3 | 8.0 | 0.00 | 0.00 | 0.00 | 44 | 968.4 |
| 20260830124533 | 25 | 288 | 3.2 | 17.7 | 0.00 | 0.00 | 0.00 | 41 | 968.8 |
| 20260830124103 | 23 | 288 | 6.4 | 17.7 | 0.00 | 0.00 | 0.00 | 41 | 968.6 |
| 20260830123638 | 23 | 198 | 17.7 | 25.7 | 0.00 | 0.00 | 0.00 | 41 | 968.9 |
| 20260830123153 | 24 | 198 | 11.3 | 35.4 | 0.00 | 0.00 | 0.00 | 41 | 968.8 |
| 20260830122728 | 24 | 198 | 12.9 | 37.0 | 0.00 | 0.00 | 0.00 | 41 | 968.8 |
| 20260830122252 | 24 | 304 | 12.9 | 32.2 | 0.00 | 0.00 | 0.00 | 45 | 968.5 |
| 20260830121819 | 24 | 143 | 12.9 | 22.5 | 0.00 | 0.00 | 0.00 | 45 | 968.8 |
| 20260830121353 | 24 | 338 | 11.3 | 22.5 | 0.00 | 0.00 | 0.00 | 45 | 968.6 |
| 20260830120858 | 24 | 338 | 11.3 | 17.7 | 0.00 | 0.00 | 0.00 | 45 | 968.7 |
| 20260830120413 | 24 | 314 | 3.2 | 25.7 | 0.00 | 0.00 | 0.00 | 45 | 968.8 |
| 20260830115938 | 24 | 314 | 17.7 | 35.4 | 0.00 | 0.00 | 0.00 | 45 | 968.8 |
| 20260830115458 | 23 | 122 | 17.7 | 35.4 | 0.00 | 0.00 | 0.00 | 46 | 968.6 |
| 20260830115024 | 23 | 122 | 9.7 | 35.4 | 0.00 | 0.00 | 0.00 | 46 | 968.9 |
| 20260830114606 | 23 | 179 | 14.5 | 32.2 | 0.00 | 0.00 | 0.00 | 46 | 969.0 |
| 20260830114153 | 23 | 337 | 3.2 | 29.0 | 0.00 | 0.00 | 0.00 | 100 | 968.8 |
| 20260830113659 | 23 | 0 | 3.2 | 25.7 | 0.00 | 0.00 | 0.00 | 100 | 968.8 |
| 20260830113233 | 23 | 0 | 3.2 | 17.7 | 0.00 | 0.00 | 0.00 | 100 | 968.8 |
| 20260830112738 | 23 | 129 | 8.0 | 32.2 | 0.00 | 0.00 | 0.00 | 48 | 968.8 |
| 20260830112253 | 23 | 129 | 8.0 | 32.2 | 0.00 | 0.00 | 0.00 | 48 | 969.1 |
| 20260830111819 | 22 | 97 | 9.7 | 32.2 | 0.00 | 0.00 | 0.00 | 48 | 968.8 |
| 20260830111353 | 22 | 322 | 6.4 | 14.5 | 0.00 | 0.00 | 0.00 | 48 | 969.0 |
| 20260830110938 | 22 | 299 | 25.7 | 14.5 | 0.00 | 0.00 | 0.00 | 47 | 968.9 |
| 20260830110453 | 22 | 299 | 9.7 | 14.5 | 0.00 | 0.00 | 0.00 | 47 | 968.8 |
| 20260830110033 | 22 | 299 | 4.8 | 29.0 | 0.00 | 0.00 | 0.00 | 47 | 968.9 |
| 20260830105548 | 22 | 299 | 8.0 | 32.2 | 0.00 | 0.00 | 0.00 | 47 | 968.7 |
| 20260830105133 | 22 | 299 | 22.5 | 32.2 | 0.00 | 0.00 | 0.00 | 47 | 968.6 |
| 20260830104648 | 22 | 128 | 11.3 | 37.0 | 0.00 | 0.00 | 0.00 | 47 | 969.3 |
| 20260830104208 | 23 | 155 | 11.3 | 37.0 | 0.00 | 0.00 | 0.00 | 50 | 969.0 |
| 20260830103738 | 22 | 291 | 11.3 | 40.2 | 0.00 | 0.00 | 0.00 | 50 | 968.9 |
| 20260830103333 | 22 | 225 | 11.3 | 25.7 | 0.00 | 0.00 | 0.00 | 50 | 969.1 |
| 20260830102858 | 22 | 57 | 17.7 | 40.2 | 0.00 | 0.00 | 0.00 | 50 | 969.2 |
| 20260830102413 | 22 | 57 | 6.4 | 61.2 | 0.00 | 0.00 | 0.00 | 54 | 968.9 |
| 20260830101958 | 22 | 57 | 6.4 | 22.5 | 0.00 | 0.00 | 0.00 | 54 | 969.1 |
| 20260830101543 | 22 | 57 | 20.9 | 29.0 | 0.00 | 0.00 | 0.00 | 54 | 969.0 |
| 20260830101103 | 22 | 139 | 4.8 | 17.7 | 0.00 | 0.00 | 0.00 | 53 | 969.0 |
| 20260830100651 | 22 | 16 | 4.8 | 29.0 | 0.00 | 0.00 | 0.00 | 54 | 969.1 |
| 20260830100218 | 22 | 268 | 4.8 | 32.2 | 0.00 | 0.00 | 0.00 | 52 | 969.4 |
| 20260830095813 | 22 | 164 | 4.8 | 14.5 | 0.00 | 0.00 | 0.00 | 52 | 969.1 |
| 20260830095353 | 21 | 84 | 11.3 | 32.2 | 0.00 | 0.00 | 0.00 | 52 | 969.0 |
| 20260830094938 | 21 | 84 | 11.3 | 32.2 | 0.00 | 0.00 | 0.00 | 52 | 969.3 |
| 20260830094518 | 21 | 342 | 11.3 | 14.5 | 0.00 | 0.00 | 0.00 | 55 | 969.1 |
| 20260830094053 | 21 | 342 | 11.3 | 20.9 | 0.00 | 0.00 | 0.00 | 55 | 969.4 |
| 20260830093618 | 21 | 342 | 9.7 | 25.7 | 0.00 | 0.00 | 0.00 | 58 | 969.4 |
| 20260830093143 | 21 | 183 | 11.3 | 17.7 | 0.00 | 0.00 | 0.00 | 56 | 969.3 |
| 20260830092708 | 21 | 183 | 11.3 | 37.0 | 0.00 | 0.00 | 0.00 | 56 | 969.1 |
| 20260830092253 | 21 | 88 | 11.3 | 25.7 | 0.00 | 0.00 | 0.00 | 56 | 969.4 |
| 20260830091819 | 21 | 88 | 8.0 | 35.4 | 0.00 | 0.00 | 0.00 | 59 | 969.4 |
| 20260830091358 | 21 | 208 | 12.9 | 25.7 | 0.00 | 0.00 | 0.00 | 58 | 969.1 |
| 20260830090908 | 20 | 208 | 9.7 | 17.7 | 0.00 | 0.00 | 0.00 | 58 | 969.3 |
| 20260830090438 | 20 | 340 | 16.1 | 25.7 | 0.00 | 0.00 | 0.00 | 58 | 969.3 |
| 20260830085959 | 21 | 340 | 8.0 | 22.5 | 0.00 | 0.00 | 0.00 | 57 | 969.2 |
| 20260830085518 | 21 | 100 | 17.7 | 25.7 | 0.00 | 0.00 | 0.00 | 57 | 969.1 |
| 20260830085058 | 20 | 100 | 20.9 | 14.5 | 0.00 | 0.00 | 0.00 | 62 | 969.4 |
| 20260830084623 | 20 | 234 | 6.4 | 14.5 | 0.00 | 0.00 | 0.00 | 62 | 969.3 |
| 20260830084119 | 21 | 234 | 8.0 | 32.2 | 0.00 | 0.00 | 0.00 | 62 | 969.2 |
| 20260830083643 | 20 | 312 | 17.7 | 29.0 | 0.00 | 0.00 | 0.00 | 62 | 969.0 |
| 20260830083228 | 20 | 280 | 17.7 | 22.5 | 0.00 | 0.00 | 0.00 | 62 | 969.2 |
| 20260830082818 | 20 | 280 | 17.7 | 22.5 | 0.00 | 0.00 | 0.00 | 62 | 968.9 |
| 20260830082348 | 20 | 280 | 6.4 | 22.5 | 0.00 | 0.00 | 0.00 | 62 | 969.2 |
| 20260830081859 | 20 | 128 | 17.7 | 32.2 | 0.00 | 0.00 | 0.00 | 62 | 969.3 |
| 20260830081428 | 20 | 128 | 12.9 | 17.7 | 0.00 | 0.00 | 0.00 | 61 | 969.2 |
| 20260830080938 | 20 | 179 | 12.9 | 17.7 | 0.00 | 0.00 | 0.00 | 61 | 969.2 |
| 20260830080459 | 20 | 277 | 3.2 | 0.0 | 0.00 | 0.00 | 0.00 | 61 | 969.0 |
| 20260830080013 | 20 | 117 | 12.9 | 25.7 | 0.00 | 0.00 | 0.00 | 63 | 969.0 |
| 20260830075548 | 20 | 318 | 22.5 | 40.2 | 0.00 | 0.00 | 0.00 | 63 | 969.3 |
| 20260830075143 | 20 | 318 | 6.4 | 37.0 | 0.00 | 0.00 | 0.00 | 63 | 969.1 |
| 20260830074728 | 20 | 318 | 6.4 | 40.2 | 0.00 | 0.00 | 0.00 | 63 | 969.0 |
| 20260830074253 | 20 | 318 | 6.4 | 40.2 | 0.00 | 0.00 | 0.00 | 63 | 969.3 |
| 20260830073813 | 20 | 346 | 6.4 | 29.0 | 0.00 | 0.00 | 0.00 | 63 | 969.0 |
| 20260830073358 | 20 | 346 | 6.4 | 25.7 | 0.00 | 0.00 | 0.00 | 63 | 969.1 |
| 20260830072913 | 20 | 346 | 14.5 | 29.0 | 0.00 | 0.00 | 0.00 | 63 | 969.1 |
| 20260830072438 | 20 | 104 | 16.1 | 20.9 | 0.00 | 0.00 | 0.00 | 65 | 969.1 |
| 20260830072018 | 20 | 343 | 1.6 | 20.9 | 0.00 | 0.00 | 0.00 | 65 | 969.1 |
| 20260830071533 | 19 | 343 | 3.2 | 20.9 | 0.00 | 0.00 | 0.00 | 66 | 969.2 |
| 20260830071108 | 20 | 226 | 3.2 | 14.5 | 0.00 | 0.00 | 0.00 | 66 | 969.0 |
| 20260830070643 | 20 | 95 | 3.2 | 14.5 | 0.00 | 0.00 | 0.00 | 66 | 969.2 |
| 20260830070158 | 20 | 95 | 6.4 | 14.5 | 0.00 | 0.00 | 0.00 | 66 | 969.1 |
| 20260830065733 | 19 | 95 | 6.4 | 17.7 | 0.00 | 0.00 | 0.00 | 66 | 968.8 |
| 20260830065308 | 19 | 228 | 3.2 | 20.9 | 0.00 | 0.00 | 0.00 | 66 | 969.2 |
| 20260830064823 | 19 | 326 | 8.0 | 14.5 | 0.00 | 0.00 | 0.00 | 66 | 969.1 |
| 20260830064358 | 19 | 326 | 4.8 | 22.5 | 0.00 | 0.00 | 0.00 | 66 | 969.1 |
| 20260830063939 | 19 | 15 | 4.8 | 17.7 | 0.00 | 0.00 | 0.00 | 65 | 968.9 |
| 20260830063448 | 19 | 15 | 6.4 | 25.7 | 0.00 | 0.00 | 0.00 | 65 | 969.2 |
| 20260830063004 | 19 | 15 | 1.6 | 14.5 | 0.00 | 0.00 | 0.00 | 71 | 969.0 |
| 20260830062533 | 19 | 153 | 3.2 | 11.3 | 0.00 | 0.00 | 0.00 | 71 | 968.8 |
| 20260830062118 | 18 | 153 | 9.7 | 14.5 | 0.00 | 0.00 | 0.00 | 71 | 968.8 |
| 20260830061623 | 18 | 104 | 9.7 | 14.5 | 0.00 | 0.00 | 0.00 | 71 | 968.9 |
| 20260830061148 | 18 | 143 | 9.7 | 14.5 | 0.00 | 0.00 | 0.00 | 71 | 968.7 |
| 20260830060733 | 18 | 143 | 3.2 | 14.5 | 0.00 | 0.00 | 0.00 | 71 | 968.8 |
| 20260830060318 | 18 | 206 | 3.2 | 17.7 | 0.00 | 0.00 | 0.00 | 71 | 968.7 |
| 20260830055858 | 18 | 206 | 8.0 | 11.3 | 0.00 | 0.00 | 0.00 | 71 | 968.8 |
| 20260830055418 | 18 | 206 | 1.6 | 14.5 | 0.00 | 0.00 | 0.00 | 70 | 968.6 |
| 20260830054958 | 18 | 206 | 6.4 | 8.0 | 0.00 | 0.00 | 0.00 | 71 | 968.9 |
| 20260830054533 | 18 | 206 | 6.4 | 14.5 | 0.00 | 0.00 | 0.00 | 71 | 968.8 |
| 20260830054108 | 18 | 206 | 8.0 | 14.5 | 0.00 | 0.00 | 0.00 | 71 | 968.9 |
| 20260830053628 | 18 | 206 | 6.4 | 14.5 | 0.00 | 0.00 | 0.00 | 66 | 968.9 |
| 20260830053208 | 18 | 206 | 9.7 | 20.9 | 0.00 | 0.00 | 0.00 | 66 | 969.0 |
| 20260830052718 | 18 | 206 | 9.7 | 25.7 | 0.00 | 0.00 | 0.00 | 66 | 969.0 |
| 20260830052223 | 18 | 206 | 9.7 | 25.7 | 0.00 | 0.00 | 0.00 | 66 | 968.6 |
| 20260830051759 | 18 | 140 | 3.2 | 8.0 | 0.00 | 0.00 | 0.00 | 66 | 968.7 |
| 20260830051318 | 18 | 140 | 4.8 | 8.0 | 0.00 | 0.00 | 0.00 | 66 | 968.8 |
| 20260830050833 | 18 | 79 | 4.8 | 8.0 | 0.00 | 0.00 | 0.00 | 66 | 968.7 |
| 20260830050419 | 18 | 282 | 3.2 | 8.0 | 0.00 | 0.00 | 0.00 | 66 | 968.8 |
| 20260830045943 | 18 | 79 | 3.2 | 11.3 | 0.00 | 0.00 | 0.00 | 66 | 968.7 |
| 20260830045528 | 18 | 79 | 0.0 | 11.3 | 0.00 | 0.00 | 0.00 | 66 | 968.8 |
| 20260830045058 | 18 | 166 | 0.0 | 11.3 | 0.00 | 0.00 | 0.00 | 66 | 968.6 |
| 20260830044639 | 18 | 166 | 0.0 | 11.3 | 0.00 | 0.00 | 0.00 | 66 | 968.6 |
| 20260830044218 | 18 | 166 | 1.6 | 14.5 | 0.00 | 0.00 | 0.00 | 66 | 968.4 |
| 20260830043739 | 18 | 166 | 0.0 | 1.6 | 0.00 | 0.00 | 0.00 | 66 | 968.6 |
| 20260830043258 | 18 | 166 | 1.6 | 1.6 | 0.00 | 0.00 | 0.00 | 66 | 968.6 |
| 20260830042828 | 18 | 163 | 6.4 | 8.0 | 0.00 | 0.00 | 0.00 | 66 | 968.6 |
| 20260830042343 | 18 | 163 | 3.2 | 4.8 | 0.00 | 0.00 | 0.00 | 66 | 968.7 |
| 20260830041913 | 18 | 163 | 8.0 | 29.0 | 0.00 | 0.00 | 0.00 | 66 | 968.8 |
| 20260830041423 | 18 | 223 | 8.0 | 29.0 | 0.00 | 0.00 | 0.00 | 66 | 968.8 |
| 20260830040933 | 18 | 223 | 8.0 | 29.0 | 0.00 | 0.00 | 0.00 | 66 | 968.7 |
| 20260830040508 | 18 | 301 | 9.7 | 17.7 | 0.00 | 0.00 | 0.00 | 66 | 968.7 |
| 20260830040024 | 18 | 101 | 6.4 | 8.0 | 0.00 | 0.00 | 0.00 | 66 | 968.7 |
| 20260830035558 | 18 | 101 | 3.2 | 8.0 | 0.00 | 0.00 | 0.00 | 68 | 968.8 |
| 20260830035128 | 18 | 101 | 3.2 | 8.0 | 0.00 | 0.00 | 0.00 | 68 | 968.5 |
| 20260830034653 | 18 | 139 | 3.2 | 8.0 | 0.00 | 0.00 | 0.00 | 68 | 968.8 |
| 20260830034249 | 17 | 139 | 0.0 | 8.0 | 0.00 | 0.00 | 0.00 | 68 | 968.6 |
| 20260830033758 | 17 | 139 | 4.8 | 4.8 | 0.00 | 0.00 | 0.00 | 68 | 968.9 |
| 20260830033333 | 17 | 139 | 4.8 | 4.8 | 0.00 | 0.00 | 0.00 | 68 | 968.8 |
| 20260830032903 | 17 | 139 | 1.6 | 4.8 | 0.00 | 0.00 | 0.00 | 68 | 968.7 |
| 20260830032448 | 17 | 139 | 1.6 | 4.8 | 0.00 | 0.00 | 0.00 | 68 | 968.5 |
| 20260830031958 | 17 | 140 | 1.6 | 4.8 | 0.00 | 0.00 | 0.00 | 68 | 968.6 |
| 20260830031528 | 17 | 140 | 4.8 | 4.8 | 0.00 | 0.00 | 0.00 | 68 | 968.5 |
| 20260830031058 | 17 | 140 | 1.6 | 4.8 | 0.00 | 0.00 | 0.00 | 68 | 968.5 |